Date,TemperatureHighF,TemperatureAvgF,TemperatureLowF,DewpointHighF,DewpointAvgF,DewpointLowF,HumidityHigh,HumidityAvg,HumidityLow,PressureMaxIn,PressureMinIn,WindSpeedMaxMPH,WindSpeedAvgMPH,GustSpeedMaxMPH,PrecipitationSumIn
2013-3-1,71,55,36,28,23,10,65,34,11,30.29,30.09,12,2,0,0.00
2013-3-2,66,53,41,30,28,24,55,39,25,30.42,30.24,8,3,0,0.00
2013-3-3,76,58,40,44,34,26,62,43,21,30.26,29.94,9,4,0,0.00
2013-3-4,85,65,50,55,46,39,85,56,21,29.94,29.69,7,2,0,0.00
2013-3-5,67,58,48,56,29,12,88,40,15,30.33,29.75,14,6,0,0.00
2013-3-6,63,51,41,29,19,12,46,29,14,30.44,30.21,7,3,0,0.00
2013-3-7,72,56,42,55,46,29,86,70,47,30.22,30.07,9,4,0,0.00
2013-3-8,68,63,60,64,60,54,95,89,80,30.11,29.96,9,5,0,0.01
2013-3-9,68,64,63,64,62,60,97,93,87,29.99,29.63,10,6,0,0.08
2013-3-10,68,61,51,64,41,32,97,52,29,30.11,29.61,12,6,0,0.50
2013-3-11,70,59,45,35,30,25,64,36,20,30.13,29.98,8,3,0,0.00
2013-3-12,79,61,43,44,32,26,58,36,16,30.19,30.05,9,3,0,0.00
2013-3-13,76,62,49,48,41,38,81,49,26,30.41,30.19,8,3,0,0.00
2013-3-15,80,66,52,57,51,42,94,64,28,30.23,29.97,10,4,0,0.00
2013-3-16,84,68,55,63,57,52,96,72,34,29.99,29.71,12,5,0,0.00
2013-3-17,86,72,65,66,62,59,89,73,44,29.79,29.60,11,4,0,0.00
2013-3-18,94,76,64,67,53,26,95,58,9,29.89,29.67,8,3,0,0.00
2013-3-19,81,69,56,65,56,46,78,64,52,29.95,29.77,9,4,0,0.00
2013-3-20,72,64,57,64,49,40,84,60,36,30.19,29.91,13,6,0,0.00
2013-3-21,74,65,56,61,54,43,87,68,53,30.00,29.61,8,4,0,0.00
2013-3-22,87,72,65,67,64,56,97,78,42,29.70,29.58,8,3,0,0.00
2013-3-23,82,69,56,64,58,52,88,70,55,29.73,29.54,6,3,0,0.00
2013-3-24,69,56,45,60,33,20,82,45,20,30.14,29.66,17,7,0,0.00
2013-3-25,60,49,39,26,19,7,52,33,14,30.38,30.14,9,4,0,0.00
2013-3-26,65,53,41,27,21,17,44,30,17,30.50,30.27,6,3,0,0.00
2013-3-27,67,55,43,50,39,27,70,56,40,30.32,30.15,9,4,0,0.00
2013-3-28,69,64,58,60,56,50,85,77,68,30.19,30.10,9,5,0,0.00
2013-3-29,77,68,58,61,58,56,95,74,51,30.15,30.01,9,5,0,0.00
2013-3-30,84,72,64,65,62,61,92,75,48,30.08,29.86,8,4,0,0.00
2013-3-31,83,69,64,66,63,60,93,82,56,29.93,29.78,12,3,0,0.14